Location: Zagreb
(45.8000°N, 16.0000°E)
Time: 18:16:39
(UTC+02:00)

A-11 Canister half - Pass Details

Date: 16 August 2022
Orbit: 1524 x 1684 km, 47.3° (Epoch: 05 October)

Event Time Altitude Azimuth Distance (km) Brightness Sun altitude
Rises 08:55:19 0° 280° (W) 4,936 11.1 29.7°
Reaches altitude 10° 08:58:29 10° 281° (W) 3,951 10.7 30.2°
Maximum altitude 09:08:44 87° 11° (N) 1,683 9.8 32.0°
Drops below altitude 10° 09:18:48 10° 102° (ESE) 3,890 12.6 33.7°
Sets 09:21:54 0° 103° (ESE) 4,858 12.7 34.2°
